| time (UTC) | temp C | wind direction | speed KPH | gust KPH | rain 1hr cm | rain 24hr cm | rain mn cm | humidity % | barometer mb |
| 20260510190005 | 25 | 10 | 0.0 | 11.3 | 0.00 | 0.10 | 0.03 | 54 | 1009.3 |
| 20260510190003 | 25 | 308 | 1.6 | 8.0 | 0.00 | 0.10 | 0.03 | 54 | 1009.2 |
| 20260510185403 | 25 | 300 | 1.6 | 8.0 | 0.00 | 0.10 | 0.03 | 53 | 1009.1 |
| 20260510184717 | 24 | 290 | 1.6 | 8.0 | 0.00 | 0.10 | 0.03 | 55 | 1009.2 |
| 20260510184508 | 24 | 18 | 1.6 | 8.0 | 0.00 | 0.10 | 0.03 | 55 | 1009.4 |
| 20260510183818 | 24 | 319 | 1.6 | 8.0 | 0.00 | 0.10 | 0.03 | 55 | 1009.3 |
| 20260510183008 | 24 | 294 | 0.0 | 8.0 | 0.00 | 0.10 | 0.03 | 55 | 1009.3 |
| 20260510182703 | 25 | 285 | 3.2 | 11.3 | 0.00 | 0.10 | 0.03 | 55 | 1009.2 |
| 20260510181803 | 25 | 266 | 1.6 | 11.3 | 0.00 | 0.10 | 0.03 | 54 | 1009.2 |
| 20260510181519 | 25 | 320 | 1.6 | 8.0 | 0.00 | 0.10 | 0.03 | 54 | 1009.3 |
| 20260510180903 | 25 | 329 | 0.0 | 8.0 | 0.00 | 0.10 | 0.03 | 56 | 1009.2 |
| 20260510180007 | 25 | 277 | 0.0 | 11.3 | 0.00 | 0.10 | 0.03 | 53 | 1009.3 |
| 20260510180003 | 25 | 324 | 1.6 | 12.9 | 0.00 | 0.10 | 0.03 | 53 | 1009.2 |
| 20260510175403 | 25 | 329 | 3.2 | 17.7 | 0.00 | 0.10 | 0.03 | 53 | 1009.2 |
| 20260510174716 | 25 | 322 | 1.6 | 8.0 | 0.00 | 0.10 | 0.03 | 60 | 1009.1 |
| 20260510174510 | 25 | 38 | 1.6 | 8.0 | 0.00 | 0.10 | 0.03 | 57 | 1009.2 |
| 20260510173603 | 25 | 292 | 1.6 | 8.0 | 0.00 | 0.10 | 0.03 | 56 | 1009.2 |
| 20260510173009 | 25 | 252 | 0.0 | 8.0 | 0.00 | 0.10 | 0.03 | 59 | 1009.2 |
| 20260510172703 | 25 | 217 | 3.2 | 12.9 | 0.00 | 0.10 | 0.03 | 57 | 1009.1 |
| 20260510171803 | 25 | 324 | 3.2 | 12.9 | 0.00 | 0.10 | 0.03 | 59 | 1009.0 |
| 20260510171512 | 25 | 303 | 1.6 | 12.9 | 0.00 | 0.10 | 0.03 | 60 | 1009.1 |
| 20260510170903 | 24 | 293 | 1.6 | 6.4 | 0.00 | 0.10 | 0.03 | 62 | 1008.9 |
| 20260510170012 | 23 | 42 | 1.6 | 6.4 | 0.00 | 0.10 | 0.03 | 62 | 1009.1 |
| 20260510170003 | 24 | 215 | 3.2 | 8.0 | 0.00 | 0.10 | 0.03 | 62 | 1009.0 |
| 20260510165403 | 24 | 236 | 1.6 | 6.4 | 0.00 | 0.10 | 0.03 | 66 | 1009.1 |
| 20260510164503 | 22 | 121 | 4.8 | 11.3 | 0.00 | 0.10 | 0.03 | 68 | 1009.2 |
| 20260510163603 | 23 | 133 | 3.2 | 6.4 | 0.00 | 0.10 | 0.03 | 69 | 1009.2 |
| 20260510163004 | 22 | 237 | 1.6 | 4.8 | 0.00 | 0.10 | 0.03 | 70 | 1009.4 |
| 20260510162917 | 23 | 199 | 1.6 | 4.8 | 0.00 | 0.10 | 0.03 | 70 | 1009.4 |
| 20260510161803 | 22 | 52 | 1.6 | 4.8 | 0.00 | 0.10 | 0.03 | 72 | 1009.3 |
| 20260510161506 | 21 | 24 | 1.6 | 4.8 | 0.00 | 0.10 | 0.03 | 76 | 1009.4 |
| 20260510160903 | 21 | 137 | 3.2 | 6.4 | 0.00 | 0.10 | 0.03 | 77 | 1009.4 |
| 20260510160017 | 21 | 248 | 3.2 | 8.0 | 0.00 | 0.10 | 0.03 | 77 | 1009.3 |
| 20260510160003 | 21 | 160 | 1.6 | 6.4 | 0.00 | 0.10 | 0.03 | 77 | 1009.2 |
| 20260510155403 | 20 | 139 | 1.6 | 4.8 | 0.00 | 0.10 | 0.03 | 80 | 1009.5 |
| 20260510154509 | 19 | 170 | 0.0 | 9.7 | 0.00 | 0.10 | 0.03 | 81 | 1009.9 |
| 20260510154503 | 20 | 118 | 3.2 | 9.7 | 0.00 | 0.10 | 0.03 | 81 | 1009.7 |
| 20260510153603 | 20 | 185 | 3.2 | 8.0 | 0.00 | 0.10 | 0.03 | 81 | 1009.8 |
| 20260510153015 | 19 | 243 | 1.6 | 8.0 | 0.00 | 0.10 | 0.03 | 81 | 1009.8 |
| 20260510152703 | 20 | 147 | 1.6 | 6.4 | 0.00 | 0.10 | 0.03 | 83 | 1009.7 |
| 20260510151803 | 19 | 146 | 1.6 | 8.0 | 0.00 | 0.10 | 0.03 | 83 | 1009.7 |
| 20260510151610 | 18 | 105 | 0.0 | 6.4 | 0.00 | 0.10 | 0.03 | 85 | 1009.9 |
| 20260510150903 | 18 | 137 | 1.6 | 6.4 | 0.00 | 0.10 | 0.03 | 85 | 1009.9 |
| 20260510150005 | 17 | 288 | 0.0 | 4.8 | 0.00 | 0.10 | 0.03 | 88 | 1009.9 |
| 20260510150003 | 18 | 133 | 1.6 | 6.4 | 0.00 | 0.10 | 0.03 | 88 | 1009.7 |
| 20260510145403 | 17 | 143 | 1.6 | 6.4 | 0.00 | 0.10 | 0.03 | 88 | 1009.8 |
| 20260510144510 | 16 | 118 | 0.0 | 4.8 | 0.00 | 0.10 | 0.03 | 92 | 1009.9 |
| 20260510144503 | 17 | 123 | 1.6 | 4.8 | 0.00 | 0.10 | 0.03 | 92 | 1009.8 |
| 20260510143817 | 16 | 112 | 1.6 | 4.8 | 0.00 | 0.10 | 0.03 | 91 | 1009.7 |
| 20260510143008 | 15 | 194 | 0.0 | 3.2 | 0.00 | 0.10 | 0.03 | 94 | 1010.0 |
| 20260510142703 | 15 | 152 | 1.6 | 3.2 | 0.00 | 0.10 | 0.03 | 94 | 1009.9 |
| 20260510142017 | 15 | 159 | 1.6 | 3.2 | 0.00 | 0.10 | 0.03 | 95 | 1009.8 |
| 20260510141510 | 15 | 219 | 0.0 | 3.2 | 0.00 | 0.10 | 0.03 | 96 | 1009.9 |
| 20260510140903 | 15 | 134 | 0.0 | 3.2 | 0.00 | 0.10 | 0.03 | 97 | 1009.7 |
| 20260510140003 | 14 | 122 | 1.6 | 4.8 | 0.00 | 0.10 | 0.03 | 97 | 1009.8 |
| 20260510135618 | 13 | 120 | 0.0 | 4.8 | 0.00 | 0.10 | 0.03 | 97 | 1009.8 |
| 20260510134506 | 13 | 212 | 0.0 | 0.0 | 0.00 | 0.10 | 0.03 | 98 | 1009.8 |
| 20260510134503 | 13 | 0 | 0.0 | 0.0 | 0.00 | 0.10 | 0.03 | 98 | 1009.7 |
| 20260510133603 | 13 | 0 | 0.0 | 0.0 | 0.00 | 0.10 | 0.03 | 98 | 1009.7 |
| 20260510133006 | 12 | 250 | 0.0 | 0.0 | 0.00 | 0.10 | 0.03 | 98 | 1009.9 |
| 20260510132703 | 12 | 0 | 0.0 | 0.0 | 0.00 | 0.10 | 0.03 | 98 | 1009.9 |
| 20260510131803 | 12 | 0 | 0.0 | 0.0 | 0.00 | 0.10 | 0.03 | 98 | 1009.9 |
| 20260510131510 | 12 | 300 | 0.0 | 0.0 | 0.00 | 0.10 | 0.03 | 98 | 1010.1 |
| 20260510130903 | 12 | 0 | 0.0 | 0.0 | 0.00 | 0.10 | 0.03 | 98 | 1009.9 |
| 20260510130011 | 12 | 195 | 0.0 | 0.0 | 0.00 | 0.10 | 0.03 | 98 | 1010.1 |
| 20260510130003 | 12 | 0 | 0.0 | 0.0 | 0.00 | 0.10 | 0.03 | 98 | 1010.0 |
| 20260510125403 | 12 | 0 | 0.0 | 0.0 | 0.00 | 0.10 | 0.03 | 98 | 1009.9 |
| 20260510124512 | 11 | 260 | 0.0 | 0.0 | 0.00 | 0.10 | 0.03 | 98 | 1009.8 |
| 20260510124503 | 12 | 0 | 0.0 | 0.0 | 0.00 | 0.10 | 0.03 | 98 | 1009.7 |
| 20260510123603 | 11 | 0 | 0.0 | 0.0 | 0.00 | 0.10 | 0.03 | 98 | 1009.4 |
| 20260510123007 | 11 | 213 | 0.0 | 0.0 | 0.00 | 0.10 | 0.03 | 98 | 1009.5 |
| 20260510122703 | 11 | 131 | 0.0 | 4.8 | 0.00 | 0.10 | 0.03 | 98 | 1009.3 |
| 20260510122017 | 11 | 131 | 0.0 | 4.8 | 0.00 | 0.10 | 0.03 | 98 | 1009.5 |
| 20260510121508 | 11 | 117 | 0.0 | 0.0 | 0.00 | 0.10 | 0.03 | 98 | 1009.4 |
| 20260510120903 | 11 | 0 | 0.0 | 0.0 | 0.00 | 0.10 | 0.03 | 98 | 1009.4 |
| 20260510120014 | 11 | 355 | 0.0 | 0.0 | 0.00 | 0.10 | 0.03 | 98 | 1009.2 |
| 20260510120003 | 11 | 0 | 0.0 | 0.0 | 0.00 | 0.10 | 0.03 | 98 | 1009.1 |
| 20260510115403 | 11 | 0 | 0.0 | 0.0 | 0.00 | 0.10 | 0.03 | 98 | 1009.1 |
| 20260510114503 | 11 | 355 | 0.0 | 0.0 | 0.00 | 0.10 | 0.03 | 98 | 1009.2 |
| 20260510113603 | 11 | 0 | 0.0 | 0.0 | 0.00 | 0.10 | 0.03 | 98 | 1009.1 |
| 20260510113006 | 10 | 355 | 0.0 | 0.0 | 0.00 | 0.10 | 0.03 | 98 | 1009.2 |
| 20260510112703 | 11 | 0 | 0.0 | 0.0 | 0.00 | 0.10 | 0.03 | 98 | 1009.0 |
| 20260510111803 | 10 | 0 | 0.0 | 0.0 | 0.00 | 0.10 | 0.03 | 98 | 1009.1 |
| 20260510111508 | 10 | 356 | 0.0 | 0.0 | 0.00 | 0.10 | 0.03 | 98 | 1009.2 |
| 20260510110903 | 10 | 0 | 0.0 | 0.0 | 0.00 | 0.10 | 0.03 | 98 | 1009.0 |
| 20260510110015 | 10 | 355 | 0.0 | 0.0 | 0.00 | 0.10 | 0.03 | 98 | 1009.0 |
| 20260510110003 | 11 | 0 | 0.0 | 0.0 | 0.00 | 0.10 | 0.03 | 98 | 1008.9 |
| 20260510105403 | 10 | 0 | 0.0 | 0.0 | 0.00 | 0.10 | 0.03 | 98 | 1008.8 |
| 20260510104528 | 10 | 354 | 0.0 | 0.0 | 0.00 | 0.10 | 0.03 | 98 | 1008.7 |
| 20260510104503 | 10 | 0 | 0.0 | 0.0 | 0.00 | 0.10 | 0.03 | 98 | 1008.6 |
| 20260510103603 | 10 | 0 | 0.0 | 0.0 | 0.00 | 0.10 | 0.03 | 98 | 1008.6 |
| 20260510103012 | 10 | 356 | 0.0 | 0.0 | 0.00 | 0.10 | 0.03 | 98 | 1008.5 |
| 20260510102703 | 10 | 0 | 0.0 | 0.0 | 0.00 | 0.10 | 0.03 | 98 | 1008.5 |
| 20260510101803 | 10 | 0 | 0.0 | 0.0 | 0.00 | 0.10 | 0.03 | 98 | 1008.3 |
| 20260510101504 | 10 | 356 | 0.0 | 0.0 | 0.00 | 0.10 | 0.03 | 98 | 1008.5 |
| 20260510100903 | 10 | 0 | 0.0 | 0.0 | 0.00 | 0.10 | 0.03 | 98 | 1008.3 |
| 20260510100008 | 10 | 356 | 0.0 | 0.0 | 0.00 | 0.10 | 0.03 | 98 | 1008.5 |
| 20260510100004 | 10 | 0 | 0.0 | 0.0 | 0.00 | 0.10 | 0.03 | 98 | 1008.4 |
| 20260510095403 | 10 | 25 | 0.0 | 4.8 | 0.00 | 0.10 | 0.03 | 98 | 1008.2 |
| 20260510094528 | 10 | 25 | 0.0 | 4.8 | 0.00 | 0.10 | 0.03 | 98 | 1008.5 |
| 20260510094503 | 10 | 22 | 0.0 | 4.8 | 0.00 | 0.10 | 0.03 | 98 | 1008.4 |
| 20260510093603 | 10 | 357 | 0.0 | 4.8 | 0.00 | 0.10 | 0.03 | 98 | 1008.2 |
| 20260510093011 | 10 | 9 | 1.6 | 6.4 | 0.00 | 0.10 | 0.03 | 98 | 1008.6 |
| 20260510092703 | 10 | 0 | 0.0 | 0.0 | 0.00 | 0.10 | 0.03 | 98 | 1008.3 |
| 20260510091803 | 10 | 0 | 0.0 | 0.0 | 0.00 | 0.10 | 0.03 | 98 | 1008.4 |
| 20260510091506 | 10 | 351 | 0.0 | 0.0 | 0.00 | 0.10 | 0.03 | 98 | 1008.5 |
| 20260510090903 | 10 | 0 | 0.0 | 0.0 | 0.00 | 0.10 | 0.03 | 98 | 1008.4 |
| 20260510090006 | 10 | 119 | 0.0 | 4.8 | 0.00 | 0.10 | 0.03 | 98 | 1008.6 |
| 20260510090003 | 10 | 341 | 0.0 | 6.4 | 0.00 | 0.10 | 0.03 | 98 | 1008.5 |
| 20260510085403 | 10 | 349 | 0.0 | 6.4 | 0.00 | 0.10 | 0.03 | 98 | 1008.6 |
| 20260510084507 | 9 | 329 | 0.0 | 3.2 | 0.00 | 0.10 | 0.03 | 98 | 1008.7 |
| 20260510084503 | 10 | 332 | 0.0 | 3.2 | 0.00 | 0.10 | 0.03 | 98 | 1008.6 |
| 20260510083603 | 9 | 52 | 0.0 | 4.8 | 0.00 | 0.10 | 0.03 | 98 | 1008.5 |
| 20260510083010 | 9 | 274 | 0.0 | 4.8 | 0.00 | 0.10 | 0.03 | 98 | 1008.5 |
| 20260510082703 | 9 | 0 | 0.0 | 0.0 | 0.00 | 0.10 | 0.03 | 98 | 1008.2 |
| 20260510081803 | 9 | 0 | 0.0 | 0.0 | 0.00 | 0.10 | 0.03 | 98 | 1007.8 |
| 20260510081604 | 9 | 338 | 0.0 | 0.0 | 0.00 | 0.10 | 0.03 | 98 | 1007.9 |
| 20260510080904 | 9 | 0 | 0.0 | 0.0 | 0.00 | 0.10 | 0.03 | 98 | 1007.8 |
| 20260510080007 | 9 | 338 | 0.0 | 0.0 | 0.00 | 0.10 | 0.03 | 98 | 1008.0 |
| 20260510080003 | 9 | 0 | 0.0 | 0.0 | 0.00 | 0.10 | 0.03 | 98 | 1007.8 |
| 20260510075403 | 9 | 0 | 0.0 | 0.0 | 0.00 | 0.10 | 0.03 | 98 | 1007.7 |
| 20260510074512 | 8 | 338 | 0.0 | 0.0 | 0.00 | 0.10 | 0.03 | 98 | 1007.8 |
| 20260510074503 | 9 | 0 | 0.0 | 0.0 | 0.00 | 0.10 | 0.03 | 98 | 1007.7 |
| 20260510073603 | 9 | 0 | 0.0 | 0.0 | 0.03 | 0.10 | 0.03 | 98 | 1007.8 |
| 20260510073005 | 8 | 338 | 0.0 | 0.0 | 0.03 | 0.10 | 0.03 | 97 | 1007.8 |
| 20260510072703 | 9 | 0 | 0.0 | 0.0 | 0.03 | 0.10 | 0.03 | 97 | 1007.7 |
| 20260510071803 | 9 | 0 | 0.0 | 0.0 | 0.03 | 0.10 | 0.03 | 97 | 1007.6 |
| 20260510071508 | 8 | 338 | 0.0 | 0.0 | 0.03 | 0.10 | 0.03 | 97 | 1007.8 |
| 20260510071118 | 9 | 0 | 0.0 | 0.0 | 0.03 | 0.10 | 0.03 | 97 | 1007.5 |
| 20260510070016 | 9 | 338 | 0.0 | 3.2 | 0.03 | 0.10 | 0.03 | 97 | 1007.6 |
| 20260510070003 | 9 | 355 | 0.0 | 3.2 | 0.03 | 0.10 | 0.03 | 97 | 1007.5 |
| 20260510065403 | 9 | 3 | 0.0 | 1.6 | 0.03 | 0.10 | 0.03 | 97 | 1007.4 |
| 20260510064511 | 9 | 4 | 0.0 | 1.6 | 0.03 | 0.10 | 0.03 | 97 | 1007.5 |
| 20260510064503 | 9 | 1 | 0.0 | 1.6 | 0.03 | 0.10 | 0.03 | 97 | 1007.4 |
| 20260510063604 | 9 | 0 | 0.0 | 0.0 | 0.00 | 0.08 | 0.00 | 97 | 1007.2 |
| 20260510063013 | 9 | 87 | 0.0 | 0.0 | 0.00 | 0.08 | 0.00 | 97 | 1007.4 |
| 20260510062703 | 9 | 0 | 0.0 | 0.0 | 0.00 | 0.08 | 0.00 | 97 | 1007.3 |
| 20260510061803 | 9 | 0 | 0.0 | 0.0 | 0.00 | 0.08 | 0.00 | 97 | 1007.3 |
| 20260510061521 | 8 | 87 | 0.0 | 0.0 | 0.00 | 0.08 | 0.00 | 97 | 1007.5 |
| 20260510060903 | 9 | 0 | 0.0 | 0.0 | 0.00 | 0.08 | 0.00 | 97 | 1007.4 |
| 20260510060217 | 9 | 0 | 0.0 | 0.0 | 0.00 | 0.08 | 0.00 | 97 | 1007.3 |
| 20260510060006 | 8 | 87 | 0.0 | 0.0 | 0.00 | 0.08 | 0.00 | 97 | 1007.5 |
| 20260510055403 | 9 | 0 | 0.0 | 0.0 | 0.00 | 0.08 | 0.00 | 97 | 1007.4 |
| 20260510054507 | 8 | 87 | 0.0 | 0.0 | 0.00 | 0.08 | 0.00 | 97 | 1007.6 |
| 20260510054503 | 9 | 0 | 0.0 | 0.0 | 0.00 | 0.08 | 0.00 | 97 | 1007.5 |
| 20260510053603 | 9 | 0 | 0.0 | 0.0 | 0.00 | 0.08 | 0.00 | 97 | 1007.5 |
| 20260510053107 | 8 | 87 | 0.0 | 0.0 | 0.00 | 0.08 | 0.00 | 97 | 1007.7 |
| 20260510052703 | 9 | 0 | 0.0 | 0.0 | 0.00 | 0.08 | 0.00 | 97 | 1007.5 |
| 20260510051803 | 8 | 0 | 0.0 | 0.0 | 0.00 | 0.08 | 0.00 | 97 | 1007.6 |
| 20260510051607 | 8 | 87 | 0.0 | 0.0 | 0.00 | 0.08 | 0.00 | 97 | 1007.8 |
| 20260510050903 | 8 | 0 | 0.0 | 0.0 | 0.00 | 0.08 | 0.00 | 97 | 1007.7 |
| 20260510050010 | 8 | 87 | 0.0 | 0.0 | 0.00 | 0.08 | 0.00 | 97 | 1007.9 |
| 20260510050003 | 8 | 0 | 0.0 | 0.0 | 0.00 | 0.08 | 0.00 | 97 | 1007.7 |
| 20260510045616 | 8 | 0 | 0.0 | 0.0 | 0.00 | 0.08 | 0.00 | 97 | 1007.7 |
| 20260510044510 | 8 | 87 | 0.0 | 0.0 | 0.00 | 0.08 | 0.00 | 97 | 1007.9 |
| 20260510044503 | 8 | 0 | 0.0 | 0.0 | 0.00 | 0.08 | 0.00 | 97 | 1007.8 |
| 20260510043603 | 8 | 0 | 0.0 | 0.0 | 0.00 | 0.08 | 0.00 | 97 | 1007.8 |
| 20260510043019 | 8 | 87 | 0.0 | 0.0 | 0.00 | 0.08 | 0.00 | 97 | 1007.9 |
| 20260510042703 | 8 | 0 | 0.0 | 0.0 | 0.00 | 0.08 | 0.00 | 97 | 1007.8 |
| 20260510041804 | 8 | 0 | 0.0 | 0.0 | 0.00 | 0.08 | 0.00 | 97 | 1007.8 |
| 20260510041505 | 7 | 87 | 0.0 | 0.0 | 0.00 | 0.08 | 0.00 | 97 | 1007.9 |
| 20260510041117 | 7 | 0 | 0.0 | 0.0 | 0.00 | 0.08 | 0.00 | 97 | 1007.8 |
| 20260510040104 | 7 | 87 | 0.0 | 0.0 | 0.00 | 0.08 | 0.00 | 97 | 1008.0 |
| 20260510040004 | 7 | 0 | 0.0 | 0.0 | 0.00 | 0.08 | 0.00 | 97 | 1007.9 |
| 20260510035403 | 7 | 0 | 0.0 | 0.0 | 0.00 | 0.08 | 0.08 | 97 | 1007.8 |
| 20260510034506 | 7 | 87 | 0.0 | 0.0 | 0.00 | 0.08 | 0.08 | 97 | 1007.7 |
| 20260510034503 | 7 | 0 | 0.0 | 0.0 | 0.00 | 0.08 | 0.08 | 97 | 1007.6 |
| 20260510033603 | 7 | 0 | 0.0 | 0.0 | 0.00 | 0.08 | 0.08 | 97 | 1007.6 |
| 20260510033009 | 7 | 87 | 0.0 | 0.0 | 0.00 | 0.08 | 0.08 | 97 | 1007.7 |
| 20260510032703 | 7 | 0 | 0.0 | 0.0 | 0.00 | 0.08 | 0.08 | 97 | 1007.5 |
| 20260510031803 | 7 | 0 | 0.0 | 0.0 | 0.00 | 0.08 | 0.08 | 97 | 1007.5 |
| 20260510031511 | 7 | 87 | 0.0 | 0.0 | 0.00 | 0.08 | 0.08 | 96 | 1007.6 |
| 20260510030903 | 7 | 0 | 0.0 | 0.0 | 0.00 | 0.08 | 0.08 | 96 | 1007.5 |
| 20260510030009 | 7 | 87 | 0.0 | 0.0 | 0.00 | 0.08 | 0.08 | 96 | 1007.6 |
| 20260510030004 | 8 | 0 | 0.0 | 0.0 | 0.00 | 0.08 | 0.08 | 96 | 1007.5 |
| 20260510025403 | 8 | 0 | 0.0 | 0.0 | 0.00 | 0.08 | 0.08 | 96 | 1007.5 |
| 20260510024506 | 8 | 87 | 0.0 | 0.0 | 0.00 | 0.08 | 0.08 | 96 | 1007.5 |
| 20260510024503 | 8 | 0 | 0.0 | 0.0 | 0.00 | 0.08 | 0.08 | 96 | 1007.3 |
| 20260510023818 | 8 | 0 | 0.0 | 0.0 | 0.00 | 0.08 | 0.08 | 96 | 1007.3 |
| 20260510023009 | 8 | 87 | 0.0 | 0.0 | 0.00 | 0.08 | 0.08 | 96 | 1007.6 |
| 20260510022703 | 8 | 0 | 0.0 | 0.0 | 0.00 | 0.08 | 0.08 | 96 | 1007.4 |
| 20260510021803 | 8 | 0 | 0.0 | 0.0 | 0.00 | 0.08 | 0.08 | 96 | 1007.3 |
| 20260510021515 | 8 | 87 | 0.0 | 0.0 | 0.00 | 0.08 | 0.08 | 96 | 1007.4 |
| 20260510021116 | 8 | 0 | 0.0 | 0.0 | 0.00 | 0.08 | 0.08 | 96 | 1007.3 |
| 20260510020013 | 8 | 87 | 0.0 | 0.0 | 0.00 | 0.08 | 0.08 | 96 | 1007.5 |
| 20260510020003 | 8 | 0 | 0.0 | 0.0 | 0.00 | 0.08 | 0.08 | 96 | 1007.4 |
| 20260510015617 | 8 | 0 | 0.0 | 0.0 | 0.00 | 0.08 | 0.08 | 96 | 1007.4 |
| 20260510014506 | 8 | 87 | 0.0 | 0.0 | 0.00 | 0.08 | 0.08 | 96 | 1007.5 |
| 20260510014503 | 9 | 0 | 0.0 | 0.0 | 0.00 | 0.08 | 0.08 | 96 | 1007.4 |
| 20260510013603 | 9 | 0 | 0.0 | 0.0 | 0.00 | 0.08 | 0.08 | 95 | 1007.4 |
| 20260510013009 | 9 | 87 | 0.0 | 0.0 | 0.00 | 0.08 | 0.08 | 95 | 1007.4 |
| 20260510012703 | 10 | 0 | 0.0 | 0.0 | 0.00 | 0.08 | 0.08 | 95 | 1007.3 |
| 20260510011803 | 10 | 0 | 0.0 | 0.0 | 0.00 | 0.08 | 0.08 | 95 | 1007.3 |
| 20260510011510 | 10 | 87 | 0.0 | 0.0 | 0.00 | 0.08 | 0.08 | 95 | 1007.4 |
| 20260510010903 | 10 | 0 | 0.0 | 0.0 | 0.00 | 0.08 | 0.08 | 95 | 1007.3 |
| 20260510010103 | 10 | 87 | 0.0 | 0.0 | 0.00 | 0.08 | 0.08 | 95 | 1007.2 |
| 20260510010003 | 10 | 0 | 0.0 | 0.0 | 0.00 | 0.08 | 0.08 | 95 | 1007.1 |
| 20260510005403 | 10 | 0 | 0.0 | 0.0 | 0.00 | 0.08 | 0.08 | 95 | 1007.1 |
| 20260510004718 | 10 | 0 | 0.0 | 0.0 | 0.00 | 0.08 | 0.08 | 94 | 1007.0 |
| 20260510004507 | 10 | 87 | 0.0 | 0.0 | 0.00 | 0.08 | 0.08 | 94 | 1007.0 |
| 20260510003603 | 11 | 0 | 0.0 | 0.0 | 0.00 | 0.08 | 0.08 | 94 | 1006.8 |
| 20260510003011 | 11 | 87 | 0.0 | 0.0 | 0.00 | 0.08 | 0.08 | 94 | 1007.0 |
| 20260510002703 | 11 | 0 | 0.0 | 0.0 | 0.00 | 0.08 | 0.08 | 94 | 1006.8 |
| 20260510001803 | 11 | 0 | 0.0 | 0.0 | 0.00 | 0.08 | 0.08 | 93 | 1006.7 |
| 20260510001509 | 11 | 87 | 0.0 | 0.0 | 0.00 | 0.08 | 0.08 | 93 | 1006.8 |
| 20260510000903 | 11 | 0 | 0.0 | 0.0 | 0.00 | 0.08 | 0.08 | 93 | 1006.8 |
| 20260510000019 | 11 | 87 | 0.0 | 0.0 | 0.00 | 0.08 | 0.08 | 93 | 1006.7 |
| 20260510000003 | 12 | 0 | 0.0 | 0.0 | 0.00 | 0.08 | 0.08 | 93 | 1006.6 |
| 20260509235403 | 12 | 0 | 0.0 | 0.0 | 0.00 | 0.08 | 0.08 | 92 | 1006.6 |
| 20260509234718 | 12 | 0 | 0.0 | 0.0 | 0.00 | 0.08 | 0.08 | 92 | 1006.6 |
| 20260509234509 | 12 | 87 | 0.0 | 0.0 | 0.00 | 0.08 | 0.08 | 92 | 1006.7 |
| 20260509233603 | 12 | 0 | 0.0 | 0.0 | 0.00 | 0.08 | 0.08 | 91 | 1006.7 |
| 20260509233009 | 12 | 87 | 0.0 | 0.0 | 0.00 | 0.08 | 0.08 | 91 | 1006.7 |
| 20260509232703 | 13 | 0 | 0.0 | 0.0 | 0.00 | 0.08 | 0.08 | 90 | 1006.6 |
| 20260509231803 | 13 | 0 | 0.0 | 0.0 | 0.00 | 0.08 | 0.08 | 89 | 1006.6 |
| 20260509231511 | 13 | 87 | 0.0 | 0.0 | 0.00 | 0.08 | 0.08 | 89 | 1006.6 |
| 20260509230903 | 13 | 87 | 0.0 | 1.6 | 0.00 | 0.08 | 0.08 | 89 | 1006.6 |
| 20260509230004 | 13 | 87 | 0.0 | 1.6 | 0.00 | 0.08 | 0.08 | 89 | 1006.7 |
| 20260509225403 | 13 | 106 | 0.0 | 1.6 | 0.00 | 0.08 | 0.08 | 90 | 1006.5 |
| 20260509224506 | 13 | 106 | 0.0 | 1.6 | 0.00 | 0.08 | 0.08 | 90 | 1006.7 |
| 20260509224503 | 13 | 106 | 0.0 | 1.6 | 0.00 | 0.08 | 0.08 | 90 | 1006.6 |
| 20260509223817 | 13 | 123 | 0.0 | 1.6 | 0.00 | 0.08 | 0.08 | 90 | 1006.6 |
| 20260509223015 | 13 | 143 | 0.0 | 3.2 | 0.00 | 0.08 | 0.08 | 90 | 1006.7 |
| 20260509222703 | 13 | 118 | 0.0 | 4.8 | 0.00 | 0.08 | 0.08 | 91 | 1006.6 |
| 20260509221803 | 13 | 107 | 1.6 | 6.4 | 0.03 | 0.08 | 0.08 | 91 | 1006.7 |
| 20260509221510 | 13 | 65 | 0.0 | 6.4 | 0.03 | 0.08 | 0.08 | 90 | 1006.9 |
| 20260509220903 | 13 | 117 | 1.6 | 4.8 | 0.05 | 0.08 | 0.08 | 90 | 1006.9 |
| 20260509220218 | 13 | 166 | 0.0 | 3.2 | 0.08 | 0.08 | 0.08 | 90 | 1007.0 |
| 20260509220007 | 13 | 135 | 0.0 | 3.2 | 0.08 | 0.08 | 0.08 | 90 | 1007.1 |
| 20260509215403 | 13 | 156 | 0.0 | 3.2 | 0.08 | 0.08 | 0.08 | 90 | 1006.9 |
| 20260509214717 | 13 | 84 | 0.0 | 3.2 | 0.08 | 0.08 | 0.08 | 91 | 1007.0 |
| 20260509214508 | 13 | 139 | 0.0 | 1.6 | 0.08 | 0.08 | 0.08 | 91 | 1007.1 |
| 20260509213603 | 13 | 148 | 0.0 | 1.6 | 0.08 | 0.08 | 0.08 | 90 | 1007.3 |
| 20260509213012 | 13 | 147 | 0.0 | 1.6 | 0.08 | 0.08 | 0.08 | 89 | 1007.4 |
| 20260509212703 | 13 | 251 | 0.0 | 1.6 | 0.08 | 0.08 | 0.08 | 88 | 1007.5 |
| 20260509211803 | 13 | 0 | 0.0 | 0.0 | 0.05 | 0.05 | 0.05 | 87 | 1007.1 |
| 20260509211516 | 13 | 251 | 0.0 | 0.0 | 0.05 | 0.05 | 0.05 | 86 | 1007.1 |
| 20260509210903 | 13 | 250 | 0.0 | 1.6 | 0.03 | 0.03 | 0.03 | 85 | 1007.1 |
| 20260509210218 | 13 | 299 | 0.0 | 1.6 | 0.00 | 0.00 | 0.00 | 84 | 1007.1 |
| 20260509210006 | 13 | 251 | 0.0 | 1.6 | 0.00 | 0.00 | 0.00 | 84 | 1007.1 |
| 20260509205403 | 14 | 354 | 0.0 | 3.2 | 0.00 | 0.00 | 0.00 | 83 | 1007.2 |
| 20260509204510 | 14 | 350 | 0.0 | 6.4 | 0.00 | 0.00 | 0.00 | 82 | 1006.8 |
| 20260509204503 | 14 | 344 | 1.6 | 6.4 | 0.00 | 0.00 | 0.00 | 82 | 1006.7 |
| 20260509203603 | 15 | 346 | 1.6 | 9.7 | 0.00 | 0.00 | 0.00 | 82 | 1006.7 |
| 20260509203013 | 14 | 2 | 1.6 | 8.0 | 0.00 | 0.00 | 0.00 | 81 | 1007.0 |
| 20260509202703 | 15 | 3 | 4.8 | 11.3 | 0.00 | 0.00 | 0.00 | 81 | 1006.9 |
| 20260509202017 | 15 | 357 | 4.8 | 19.3 | 0.00 | 0.00 | 0.00 | 82 | 1006.8 |
| 20260509201514 | 15 | 274 | 1.6 | 14.5 | 0.00 | 0.00 | 0.00 | 82 | 1006.9 |
| 20260509200903 | 15 | 355 | 1.6 | 11.3 | 0.00 | 0.00 | 0.00 | 82 | 1006.8 |
| 20260509200217 | 15 | 5 | 1.6 | 4.8 | 0.00 | 0.00 | 0.00 | 84 | 1006.8 |
| 20260509200005 | 15 | 357 | 0.0 | 6.4 | 0.00 | 0.00 | 0.00 | 84 | 1006.9 |
| 20260509195403 | 15 | 343 | 1.6 | 8.0 | 0.00 | 0.00 | 0.00 | 83 | 1006.9 |
| 20260509194507 | 14 | 286 | 0.0 | 14.5 | 0.00 | 0.00 | 0.00 | 84 | 1007.2 |
| 20260509194503 | 15 | 348 | 3.2 | 16.1 | 0.00 | 0.00 | 0.00 | 84 | 1007.1 |
| 20260509193818 | 15 | 336 | 1.6 | 6.4 | 0.00 | 0.00 | 0.00 | 82 | 1007.3 |
| 20260509193013 | 15 | 286 | 0.0 | 9.7 | 0.00 | 0.00 | 0.00 | 81 | 1007.4 |
| 20260509192917 | 15 | 346 | 1.6 | 11.3 | 0.00 | 0.00 | 0.00 | 81 | 1007.4 |
| 20260509192017 | 15 | 357 | 3.2 | 11.3 | 0.00 | 0.00 | 0.00 | 80 | 1007.5 |
| 20260509191512 | 15 | 331 | 1.6 | 12.9 | 0.00 | 0.00 | 0.00 | 79 | 1007.6 |
| 20260509190903 | 16 | 326 | 1.6 | 9.7 | 0.00 | 0.00 | 0.00 | 78 | 1007.5 |